Weather in Yanaul

Russia / Republic of Bashkortostan     56°15′53″N   54°55′47″E
temp.,
°C
wind,
m/s
gust,
m/s
humid.,
%
clouds,
%
prec.,
mm/h
press.,
hPa
HPBL,
m
27 february, sat
sat2723:00−20sse5149441 0.0 1018333
02:00−18sse7159271 0.0 1014492
05:00−17se8159086 0.0 1011525
08:00−15se81494100 0.8 1007722
11:00−14se71293100 2.0 1005819
14:00−11se71191100 0.7 1004841
17:00−10se61093100 1.0 1003821
20:00−10ese61094100 0.6 1003503
28 february, sun
sun2823:00−11e61094100 1.3 1003391
02:00−13e61094100 0.4 1002318
05:00−14ene61094100 0.6 1002302
08:00−13ne5109499 0.2 1003346
11:00−12ne6993100 0.4 1003415
14:00−10ne6891100 0.1 1004502
17:00−9nne6991100 0.3 1006573
20:00−11nne51093100 0.2 1008355
1 march, mon
mon123:00−14nne599395 0.3 1010261
02:00−16nne489587 0.0 1012161
05:00−19n469681 0.0 1014114
08:00−21n469771 0.0 101688
11:00−17nne359364 0.0 1018254
14:00−14n359061 0.0 1018396
17:00−13nnw249180 0.0 1019379
20:00−18nnw229693 0.0 101920
2 march, tue
tue223:00−20wsw1210053 0.0 101920
02:00−21sw339939 0.0 101823
05:00−22ssw4610055 0.0 101688
08:00−21s599699 0.0 1014235
11:00−18s61094100 0.0 1012324
14:00−15s71293100 0.0 1009420
17:00−12s71292100 0.3 1007575
20:00−11s61293100 0.4 1005567
3 march, wed
wed323:00−11s61293100 0.6 1004453
02:00−12s61193100 0.2 1003378
05:00−11sse51094100 0.6 1001358
08:00−12se5895100 0.8 1000298
11:00−10se3594100 1.3 1000274
14:00−7e2391100 0.3 1000313
17:00−6n3494100 0.8 1000312
20:00−8nnw4796100 0.3 1001252